When you browse on this site, cookies collect data to enhance your experience and personalize the content and advertising you see.
Visit our Privacy Policy to learn more. By continuing to use the site, you agree to this use of cookies and data.
  • In Switzerland
  • List of Countries
  • For 7 days
  • Water Temperature
  • Weather Map
  • Weather Widgets
  • user-avatar
    Login

    Hourly Weather Bansko

    Today, 25 February, Tuesday

    Time Temperature Precipitation Wind Pressure Humidity
    00:00 +5°C° 0 mm 1 mps 723 mmHg 57%
    01:00 +5°C° 0 mm 1 mps 723 mmHg 54%
    02:00 +5°C° 0 mm 1 mps 723 mmHg 48%
    03:00 +5°C° 0 mm 1 mps 722 mmHg 47%
    04:00 +5°C° 0 mm 1 mps 722 mmHg 45%
    05:00 +5°C° 0 mm 1 mps 721 mmHg 44%
    06:00 +6°C° 0 mm 1 mps 721 mmHg 44%
    07:00 +6°C° 0 mm 1 mps 722 mmHg 43%
    08:00 +7°C° 0 mm 1 mps 722 mmHg 43%
    09:00 +9°C° 0 mm 1 mps 722 mmHg 44%
    10:00 +10°C° 0 mm 2 mps 721 mmHg 44%
    11:00 +13°C° 0 mm 2 mps 721 mmHg 45%
    12:00 +12°C° 0 mm 3 mps 720 mmHg 48%
    13:00 +13°C° 0 mm 3 mps 719 mmHg 52%
    14:00 +13°C° 0 mm 3 mps 719 mmHg 56%
    15:00 +13°C° 0 mm 3 mps 718 mmHg 59%
    16:00 +13°C° 0 mm 3 mps 718 mmHg 62%
    17:00 +13°C° 0 mm 2 mps 717 mmHg 66%
    18:00 +12°C° 0 mm 2 mps 717 mmHg 69%
    19:00 +10°C° 0 mm 2 mps 717 mmHg 72%
    20:00 +9°C° 0 mm 2 mps 717 mmHg 75%
    21:00 +8°C° 0 mm 2 mps 716 mmHg 76%
    22:00 +8°C° 0 mm 2 mps 716 mmHg 77%
    23:00 +8°C° 0 mm 2 mps 716 mmHg 77%

    Tomorrow, 26 February, Wednesday

    Time Temperature Precipitation Wind Pressure Humidity
    00:00 +8°C° 0 mm 2 mps 715 mmHg 78%
    01:00 +8°C° 0 mm 2 mps 715 mmHg 79%
    02:00 +8°C° 0 mm 2 mps 715 mmHg 79%
    03:00 +8°C° 0 mm 2 mps 714 mmHg 79%
    04:00 +8°C° 0 mm 2 mps 714 mmHg 79%
    05:00 +8°C° 0 mm 2 mps 713 mmHg 79%
    06:00 +8°C° 0 mm 2 mps 713 mmHg 78%
    07:00 +8°C° 0 mm 2 mps 712 mmHg 76%
    08:00 +8°C° 0 mm 2 mps 712 mmHg 75%
    09:00 +10°C° 0 mm 2 mps 712 mmHg 70%
    10:00 +11°C° 0 mm 3 mps 711 mmHg 65%
    11:00 +13°C° 0 mm 3 mps 711 mmHg 60%
    12:00 +14°C° 0 mm 4 mps 711 mmHg 55%
    13:00 +15°C° 0 mm 4 mps 710 mmHg 50%
    14:00 +16°C° 0 mm 5 mps 709 mmHg 46%
    15:00 +15°C° 0 mm 5 mps 709 mmHg 51%
    16:00 +14°C° 0 mm 4 mps 708 mmHg 57%
    17:00 +12°C° 0 mm 4 mps 708 mmHg 62%
    18:00 +11°C° 0 mm 4 mps 708 mmHg 68%
    19:00 +10°C° 0 mm 4 mps 708 mmHg 74%
    20:00 +8°C° 0 mm 4 mps 708 mmHg 80%
    21:00 +8°C° 0.1 mm 4 mps 708 mmHg 81%
    22:00 +8°C° 0.1 mm 4 mps 708 mmHg 82%
    23:00 +7°C° 0.1 mm 4 mps 708 mmHg 82%

    Day after tomorrow, 27 February, Thursday

    Time Temperature Precipitation Wind Pressure Humidity
    00:00 +7°C° 0.1 mm 4 mps 708 mmHg 80%
    01:00 +7°C° 0.1 mm 4 mps 708 mmHg 78%
    02:00 +7°C° 0.1 mm 5 mps 708 mmHg 76%
    03:00 +6°C° 0.5 mm 4 mps 707 mmHg 81%
    04:00 +5°C° 0.5 mm 4 mps 707 mmHg 86%
    05:00 +5°C° 0.5 mm 3 mps 707 mmHg 91%
    06:00 +5°C° 0.9 mm 4 mps 707 mmHg 87%
    07:00 +4°C° 0.9 mm 6 mps 707 mmHg 84%
    08:00 +3°C° 0.9 mm 7 mps 708 mmHg 80%
    09:00 +4°C° 0.2 mm 6 mps 708 mmHg 74%
    10:00 +5°C° 0.2 mm 6 mps 709 mmHg 68%
    11:00 +6°C° 0.2 mm 5 mps 710 mmHg 61%
    12:00 +6°C° 0.6 mm 5 mps 710 mmHg 65%
    13:00 +5°C° 0.6 mm 4 mps 711 mmHg 69%
    14:00 +4°C° 0.6 mm 4 mps 711 mmHg 72%
    15:00 +4°C° 0.1 mm 4 mps 711 mmHg 70%
    16:00 +4°C° 0.1 mm 4 mps 712 mmHg 68%
    17:00 +3°C° 0.1 mm 4 mps 712 mmHg 65%
    18:00 +1°C° 0 mm 4 mps 713 mmHg 69%
    19:00 +1°C° 0 mm 3 mps 714 mmHg 73%
    20:00 +1°C° 0 mm 2 mps 714 mmHg 78%
    21:00 +1°C° 0 mm 2 mps 715 mmHg 77%
    22:00 +2°C° 0 mm 1 mps 715 mmHg 77%
    23:00 +1°C° 0 mm 1 mps 716 mmHg 77%

    28 February, Friday

    Time Temperature Precipitation Wind Pressure Humidity
    00:00 +1°C° 0 mm 1 mps 716 mmHg 74%
    01:00 +1°C° 0 mm 1 mps 716 mmHg 71%
    02:00 +1°C° 0 mm 1 mps 716 mmHg 69%
    03:00 +1°C° 0 mm 1 mps 716 mmHg 67%
    04:00 -1°C° 0 mm 2 mps 715 mmHg 65%
    05:00 +1°C° 0 mm 2 mps 715 mmHg 63%
    06:00 +1°C° 0 mm 2 mps 715 mmHg 63%
    07:00 +2°C° 0 mm 2 mps 715 mmHg 63%
    08:00 +3°C° 0 mm 2 mps 715 mmHg 63%
    09:00 +4°C° 0.2 mm 2 mps 715 mmHg 66%
    10:00 +3°C° 0.2 mm 3 mps 715 mmHg 68%
    11:00 +4°C° 0.2 mm 3 mps 715 mmHg 71%
    12:00 +5°C° 0.1 mm 4 mps 714 mmHg 67%
    13:00 +6°C° 0.1 mm 4 mps 714 mmHg 64%
    14:00 +7°C° 0.1 mm 4 mps 713 mmHg 60%
    15:00 +7°C° 1.3 mm 3 mps 714 mmHg 72%
    16:00 +5°C° 1.3 mm 2 mps 714 mmHg 84%
    17:00 +4°C° 1.3 mm 1 mps 714 mmHg 97%
    18:00 +3°C° 0.5 mm 2 mps 715 mmHg 95%
    19:00 +3°C° 0.5 mm 2 mps 716 mmHg 93%
    20:00 +2°C° 0.5 mm 2 mps 717 mmHg 91%
    21:00 +2°C° 0.1 mm 2 mps 718 mmHg 90%
    22:00 +1°C° 0.1 mm 2 mps 719 mmHg 88%
    23:00 -1°C° 0.1 mm 2 mps 719 mmHg 86%

    29 February, Saturday

    Time Temperature Precipitation Wind Pressure Humidity
    00:00 -1°C° 0 mm 2 mps 719 mmHg 86%
    01:00 -1°C° 0 mm 2 mps 719 mmHg 86%
    02:00 -1°C° 0 mm 2 mps 720 mmHg 85%
    03:00 -2°C° 0 mm 2 mps 720 mmHg 84%
    04:00 -2°C° 0 mm 2 mps 720 mmHg 83%
    05:00 0°C° 0 mm 1 mps 720 mmHg 82%
    06:00 0°C° 0 mm 1 mps 720 mmHg 80%
    07:00 0°C° 0 mm 1 mps 721 mmHg 79%
    08:00 +1°C° 0 mm 1 mps 721 mmHg 77%
    09:00 +2°C° 0 mm 1 mps 721 mmHg 70%
    10:00 +4°C° 0 mm 1 mps 721 mmHg 64%
    11:00 +4°C° 0 mm 2 mps 722 mmHg 57%
    12:00 +5°C° 0 mm 2 mps 721 mmHg 54%
    13:00 +6°C° 0 mm 2 mps 721 mmHg 52%
    14:00 +6°C° 0 mm 2 mps 721 mmHg 50%
    15:00 +7°C° 0 mm 1 mps 720 mmHg 52%
    16:00 +7°C° 0 mm 1 mps 720 mmHg 54%
    17:00 +7°C° 0 mm 1 mps 720 mmHg 56%
    18:00 +6°C° 0 mm 1 mps 720 mmHg 57%
    19:00 +4°C° 0 mm 1 mps 720 mmHg 58%
    20:00 +3°C° 0 mm 1 mps 720 mmHg 59%
    21:00 +3°C° 0 mm 1 mps 720 mmHg 58%
    22:00 +4°C° 0 mm 1 mps 720 mmHg 58%
    23:00 +4°C° 0 mm 1 mps 720 mmHg 57%

    1 March, Sunday

    Time Temperature Precipitation Wind Pressure Humidity
    00:00 +4°C° 0 mm 1 mps 720 mmHg 58%
    01:00 +4°C° 0 mm 1 mps 720 mmHg 58%
    02:00 +3°C° 0 mm 1 mps 720 mmHg 59%
    03:00 +4°C° 0 mm 1 mps 720 mmHg 60%
    04:00 +4°C° 0 mm 1 mps 719 mmHg 61%
    05:00 +4°C° 0 mm 1 mps 719 mmHg 62%
    06:00 +4°C° 0 mm 1 mps 719 mmHg 62%
    07:00 +4°C° 0 mm 1 mps 720 mmHg 62%
    08:00 +4°C° 0 mm 1 mps 720 mmHg 63%
    09:00 +6°C° 0 mm 1 mps 720 mmHg 61%
    10:00 +7°C° 0 mm 2 mps 720 mmHg 59%
    11:00 +9°C° 0 mm 2 mps 720 mmHg 58%
    12:00 +9°C° 0 mm 2 mps 719 mmHg 59%
    13:00 +10°C° 0 mm 2 mps 719 mmHg 59%
    14:00 +12°C° 0 mm 2 mps 718 mmHg 60%
    15:00 +10°C° 0 mm 2 mps 718 mmHg 64%
    16:00 +10°C° 0 mm 2 mps 717 mmHg 67%
    17:00 +10°C° 0 mm 2 mps 717 mmHg 71%
    18:00 +8°C° 0 mm 2 mps 717 mmHg 75%
    19:00 +7°C° 0 mm 2 mps 717 mmHg 78%
    20:00 +5°C° 0 mm 2 mps 717 mmHg 82%
    21:00 +5°C° 0 mm 2 mps 717 mmHg 83%
    22:00 +5°C° 0 mm 2 mps 717 mmHg 85%
    23:00 +5°C° 0 mm 2 mps 716 mmHg 86%
    Show more